SCP
1 1 1 0 0 0 0 0 0 0 0 0 0 0 0 0 0 0 0 0 0 0 0 0 0 0 0 0 0 0 0 0 0 0 0 0 0 0 0 0 0 0 0
1 1 1 0 0 0 0 0 0 0 0 0 0 0 0 0 0 0 0 0 0 0 0 0 0 0 0 0 0 0 0 0 0 0 0 0 0 0 0 0 0 0 0
1 1 0 0 0 0 0 0 0 0 0 0 0 0 0 0 0 0 0 0 0 0 0 0 0 0 0 0 0 0 0 0 0 0 0 0 0 0 0 0 0 0 0
1 0 0 0 0 0 0 0 0 0 0 0 0 0 0 0 0 0 0 0 0 0 0 0 0 0 0 0 0 0 0 0 0 0 0 0 0 0 0 0 0 0 0
0 0 0 0 0 0 0 0 0 0 0 0 0 0 0 0 0 0 0 0 0 0 0 0 0 0 0 0 0 0 0 0 0 0 0 0 0 0 0 0 0 0 0
0 0 0 0 0 0 0 0 0 0 0 0 0 0 0 0 0 0 0 0 0 0 0 0 0 0 0 0 0 0 0 0 0 0 0 0 0 0 0 0 0 0 0
0 0 0 0 0 0 0 0 0 0 0 0 0 0 0 0 0 0 0 0 0 0 0 0 0 0 0 0 0 0 0 0 0 0 0 0 0 0 0 0 0 0 0
0 0 0 0 0 0 0 0 0 0 0 0 0 0 0 0 0 0 0 0 0 0 0 0 0 0 0 0 0 0 0 0 0 0 0 0 0 0 0 0 0 0 0
0 0 0 0 0 0 0 0 0 0 0 0 0 0 0 0 0 0 0 0 0 0 0 0 0 0 0 0 0 0 0 0 0 0 0 0 0 0 0 0 0 0 0
0 0 0 0 0 0 0 0 0 0 0 0 0 0 0 0 0 0 0 0 0 0 0 0 0 0 0 0 0 0 0 0 0 0 0 0 0 0 0 0 0 0 0
0 0 0 0 0 0 0 0 0 0 0 0 0 0 0 0 0 0 0 0 0 0 0 0 0 0 0 0 0 0 0 0 0 0 0 0 0 0 0 0 0 0 0
0 0 0 0 0 0 0 0 0 0 0 0 0 0 0 0 0 0 0 0 0 0 0 0 0 0 0 0 0 0 0 0 0 0 0 0 0 0 0 0 0 0 0
0 0 0 0 0 0 0 0 0 0 0 0 0 0 0 0 0 0 0 0 0 0 0 0 0 0 0 0 0 0 0 0 0 0 0 0 0 0 0 0 0 0 0
0 0 0 0 0 0 0 0 0 0 0 0 0 0 0 0 0 0 0 0 0 0 0 0 0 0 0 0 0 0 0 0 0 0 0 0 0 0 0 0 0 0 0
0 0 0 0 0 0 0 0 0 0 0 0 0 0 0 0 0 0 0 0 0 0 0 0 0 0 0 0 0 0 0 0 0 0 0 0 0 0 0 0 0 0 0
0 0 0 0 0 0 0 0 0 0 0 0 0 0 0 0 0 0 0 0 0 0 0 0 0 0 0 0 0 0 0 0 0 0 0 0 0 0 0 0 0 0 0
0 0 0 0 0 0 0 0 0 0 0 0 0 0 0 0 0 0 0 0 0 0 0 0 0 0 0 0 0 0 0 0 0 0 0 0 0 0 0 0 0 0 0
0 0 0 0 0 0 0 0 0 0 0 0 0 0 0 0 0 0 0 0 0 0 0 0 0 0 0 0 0 0 0 0 0 0 0 0 0 0 0 0 0 0 0
1 1 1 0 0 0 0 0 0 0 0 0 0 0 0 0 0 0 0 0 0 0 0 0 0 0 0 0 0 0 0 0 0 0 0 0 0 0 0 0 0 0 0
1 1 1 1 1 0 0 0 0 0 0 0 0 0 0 0 0 0 0 0 0 0 0 0 0 0 0 0 0 0 0 0 0 0 0 0 0 0 0 0 0 0 0
1 1 1 1 1 1 1 1 1 0 0 0 0 0 0 0 0 0 0 0 0 0 0 0 0 0 0 0 0 0 0 0 0 0 0 0 0 0 0 0 0 0 0
1 1 1 1 1 1 1 1 1 1 0 0 0 0 0 0 0 0 0 0 0 0 0 0 0 0 0 0 0 0 0 0 0 0 0 0 0 0 0 0 0 0 0
1 1 1 1 1 1 1 1 1 1 1 0 0 0 0 0 0 0 0 0 0 0 0 0 0 0 0 0 0 0 0 0 0 0 0 0 0 0 0 0 0 0 0
1 1 1 1 1 1 1 1 1 1 0 0 0 0 0 0 0 0 0 0 0 0 0 0 0 0 0 0 0 0 0 0 0 0 0 0 0 0 0 0 0 0 0
1 1 1 1 1 1 1 1 1 1 0 0 0 0 0 0 0 0 0 0 0 0 0 0 0 0 0 0 0 0 0 0 0 0 0 0 0 0 0 0 0 0 0
1 1 1 1 1 1 1 1 1 1 1 1 1 0 0 0 0 0 0 0 0 0 0 0 0 0 0 0 0 0 0 0 0 0 0 0 0 0 0 0 0 0 0
Wind_Speed
10 12 13 13 13 12 12 12 12 12 12 12 12 12 12 13 13 12 12 13 13 14 14 15 15 15 15 15 15 15 14 14 14 14 14 14 14 15 15 14 12 9 15
14 14 13 12 12 12 12 12 12 12 12 12 12 12 12 12 12 12 12 12 13 13 14 14 14 14 14 13 13 13 12 10 9 8 9 10 12 13 14 13 13 9 13
15 14 12 12 12 12 12 11 11 11 11 11 11 11 12 12 11 11 11 11 12 12 13 13 13 12 12 12 11 10 9 7 7 5 4 4 7 12 12 12 12 12 12
14 13 12 12 11 12 12 11 11 11 11 11 11 11 11 11 11 10 10 10 11 11 11 11 11 11 10 10 9 8 7 7 9 7 4 5 5 10 10 10 11 10 10
12 12 13 12 12 12 11 11 10 10 10 10 10 10 10 10 10 9 9 9 10 10 10 10 10 9 9 8 7 6 6 7 9 5 3 5 5 8 9 9 9 9 9
11 12 13 12 12 11 10 10 10 10 10 9 9 9 9 9 9 8 8 8 8 9 8 8 8 8 7 7 6 5 6 8 7 3 4 4 4 6 7 7 7 7 7
10 12 13 12 11 10 10 9 9 9 9 9 9 9 8 8 8 7 7 6 7 7 7 7 7 6 6 5 5 4 6 9 4 2 3 3 4 6 5 5 5 5 5
10 11 12 11 11 10 9 9 8 8 8 8 8 8 8 7 7 6 6 5 5 5 5 5 5 4 4 3 3 4 5 7 5 3 2 3 4 4 3 3 3 3 3
9 10 10 9 9 9 9 8 8 8 7 7 7 7 6 6 6 5 5 4 4 4 4 4 3 3 2 1 1 2 4 6 5 2 1 2 3 2 1 2 1 2 2
8 9 9 9 8 8 7 8 8 8 7 7 7 7 6 6 5 5 5 4 4 3 3 3 3 2 1 1 2 3 5 6 4 2 0 1 2 0 2 3 3 3 3
6 7 8 8 8 7 7 9 8 7 7 7 6 7 6 4 4 4 5 5 4 3 3 3 3 3 3 4 5 6 5 3 3 1 0 2 2 3 4 5 6 6 6
7 6 7 7 7 7 7 7 5 5 5 5 5 6 4 4 3 4 6 6 5 4 4 4 5 5 4 3 5 6 3 4 3 2 2 4 4 5 7 8 8 8 8
7 6 6 6 7 6 4 5 4 3 4 5 6 6 4 3 2 3 3 4 4 5 3 4 4 4 4 2 2 3 3 3 2 2 2 5 6 8 9 10 11 11 10
8 7 6 6 6 6 5 4 4 3 3 3 4 5 4 2 2 3 3 3 3 3 3 3 3 4 3 3 3 3 3 3 2 2 3 7 8 10 11 12 12 13 12
8 8 7 6 6 6 5 4 4 4 4 4 4 4 4 3 3 3 3 3 3 3 3 3 3 3 3 4 4 4 4 4 4 4 3 7 9 11 13 13 14 14 14
8 8 8 8 7 6 5 4 4 3 4 4 4 4 5 3 3 3 3 3 3 3 3 3 3 3 3 3 4 4 4 4 5 5 4 5 9 11 13 14 14 15 15
8 8 9 9 8 7 6 6 4 4 4 4 4 5 5 4 4 3 3 3 3 3 3 3 3 3 3 3 4 5 4 5 5 6 6 4 5 9 12 14 15 15 16
7 8 8 8 8 8 7 6 4 4 4 4 3 4 5 5 5 4 3 3 3 3 3 3 3 3 3 3 4 4 4 4 6 6 6 5 4 4 7 11 13 14 15
7 8 8 8 8 8 8 6 5 4 4 4 4 4 4 5 5 4 3 3 4 3 3 3 3 3 3 4 4 4 4 5 5 6 6 6 5 5 4 6 9 11 13
6 6 7 8 8 7 6 5 4 4 4 4 4 4 5 4 5 4 3 4 4 3 3 3 4 3 3 3 4 4 5 6 5 6 6 5 5 5 5 5 4 6 10
6 6 7 7 8 7 6 6 6 6 5 4 4 5 6 5 5 5 3 4 3 3 4 4 3 4 3 2 2 4 5 7 7 6 5 4 4 5 4 5 4 4 4
7 7 7 7 7 8 7 6 5 4 4 4 4 4 5 6 5 5 5 4 4 3 4 4 3 3 3 2 2 2 4 4 3 4 3 3 4 3 4 4 4 4 4
7 7 7 7 7 7 7 5 4 3 3 4 5 5 6 6 6 5 6 5 4 4 4 5 4 4 3 3 3 2 2 3 4 3 3 3 3 3 3 3 4 5 5
7 6 6 6 6 6 6 6 7 6 6 6 5 4 5 6 6 6 5 5 5 4 5 5 5 4 4 3 3 4 4 3 2 4 3 2 3 3 4 3 4 4 5
5 5 5 5 5 5 5 7 7 7 5 4 4 4 5 5 6 6 6 5 5 5 5 5 5 5 4 4 3 2 4 4 4 4 6 5 3 3 3 4 4 4 4
4 4 5 5 5 5 6 6 7 7 6 5 5 5 4 3 4 5 5 5 5 5 5 5 5 6 5 5 4 3 3 3 3 4 6 6 5 4 4 3 3 4 4
Wind_Direction
122 128 136 132 129 127 124 121 119 115 111 107 103 100 97 93 90 89 89 87 86 84 82 79 76 73 72 71 70 69 69 68 68 68 67 62 62 60 57 55 60 57 61
124 130 135 132 130 128 125 122 121 119 116 112 108 104 101 97 94 91 90 89 88 86 84 81 78 76 75 73 71 70 69 64 61 65 72 67 66 63 59 57 60 61 62
125 131 136 132 130 128 127 124 123 122 120 116 112 107 104 101 99 95 93 91 90 88 86 84 81 77 75 74 71 68 60 43 20 14 49 81 70 66 63 60 59 60 60
128 136 138 133 131 130 130 127 125 123 120 117 115 111 108 106 103 100 98 96 93 89 88 87 84 80 78 74 71 65 47 18 356 0 46 74 69 69 63 59 58 57 56
129 132 131 136 135 133 133 131 129 127 124 121 120 117 112 109 106 103 101 101 98 94 90 88 86 82 79 76 71 58 29 359 341 353 47 74 70 72 65 61 58 54 50
130 127 135 138 138 137 135 134 133 132 130 127 125 122 117 113 110 106 104 104 101 99 95 89 87 82 76 73 66 44 10 348 338 11 46 64 70 70 68 64 58 51 45
130 127 140 139 139 139 140 140 138 138 136 132 129 126 120 116 115 112 108 109 108 106 100 95 88 81 75 68 54 26 358 339 339 26 55 62 72 72 68 64 57 48 41
130 129 140 140 142 143 144 143 142 141 140 138 136 132 128 125 125 122 116 113 114 114 110 107 99 91 81 64 41 7 345 333 334 7 66 76 85 75 54 50 46 38 29
131 133 143 151 151 149 147 146 144 143 142 140 139 137 132 128 130 125 123 126 127 129 127 122 119 111 97 73 17 334 317 315 311 304 44 87 97 78 21 353 337 335 338
136 142 150 158 159 159 156 155 151 149 148 145 142 141 140 139 140 146 147 145 145 144 145 148 150 157 172 213 246 264 281 299 279 281 358 115 113 274 294 288 291 288 282
150 153 156 162 163 162 164 163 158 156 158 153 151 157 159 174 172 173 166 155 154 159 170 179 188 201 215 230 235 245 263 260 273 279 229 149 189 268 280 274 272 274 272
171 169 164 168 165 165 168 157 166 171 169 178 172 173 189 197 177 164 156 162 168 180 195 210 219 225 230 230 232 234 247 253 256 249 212 196 226 264 273 273 270 269 267
177 177 174 173 167 165 158 159 168 173 172 187 181 185 195 184 160 151 152 164 182 195 208 220 222 231 231 235 231 226 242 263 265 255 221 214 232 259 268 271 270 269 267
180 183 184 176 168 166 164 170 168 170 171 183 179 183 186 178 178 171 170 176 186 194 204 209 217 228 237 245 252 259 264 265 263 256 228 226 231 252 264 268 270 270 267
182 182 183 181 176 171 169 176 174 176 175 180 175 185 187 181 187 186 183 186 197 196 194 207 225 232 236 243 248 255 263 267 269 266 249 237 236 246 260 266 269 269 267
185 183 181 183 182 175 175 179 181 182 177 179 174 185 189 185 190 188 192 192 203 206 204 212 228 236 240 242 252 254 255 260 262 262 257 251 244 246 255 262 267 270 270
185 183 182 183 183 181 184 186 183 182 178 182 180 186 190 191 195 193 196 197 205 206 209 216 236 243 248 251 255 258 258 258 261 261 258 253 251 246 248 258 265 268 270
183 184 182 179 183 186 187 188 186 184 182 182 181 185 194 198 199 199 198 203 206 204 204 211 224 235 244 250 257 258 254 253 254 256 255 252 251 255 249 254 262 266 269
182 179 179 179 185 189 188 186 185 182 185 181 180 187 193 197 199 201 203 204 201 204 207 213 222 222 240 249 254 258 259 256 253 252 251 249 247 250 250 258 255 258 265
178 175 177 179 184 186 185 183 186 189 191 187 186 190 192 197 199 202 205 204 199 201 210 215 224 224 230 245 261 264 259 255 249 248 248 249 249 249 249 252 254 255 257
175 177 181 183 186 182 183 187 192 199 194 193 193 193 195 196 196 199 206 204 202 206 213 218 222 232 238 242 267 281 267 252 246 246 240 241 249 253 248 247 250 254 258
183 186 188 190 188 186 187 189 191 187 192 194 193 199 199 198 197 201 205 205 204 208 217 220 220 233 243 217 220 274 299 303 273 247 234 238 245 252 253 249 246 249 253
188 190 191 190 188 188 183 176 175 178 187 194 199 202 203 202 201 200 203 203 204 203 213 216 214 219 236 236 214 212 250 270 310 288 249 240 241 246 255 255 249 247 248
187 182 186 189 189 186 179 180 181 189 199 205 199 196 196 200 203 200 202 206 205 205 212 214 213 218 223 234 234 228 234 255 286 302 298 279 269 263 262 263 257 253 248
176 174 183 189 189 184 184 190 193 200 205 197 184 187 196 199 201 200 201 206 207 210 213 212 213 218 219 225 224 228 243 254 246 256 283 294 293 273 263 259 257 260 258
172 172 184 190 194 188 192 198 198 202 203 194 191 193 198 198 198 199 202 206 210 211 212 215 217 220 224 228 230 225 219 230 239 244 263 280 283 280 273 263 263 264 263